Regional Weather Roundup
Issued by NWS Newport/Morehead, NC

Current Version | Previous Version | Graphics & Text | Print | Product List | Glossary Off
Versions: 1 2 3 4 5 6 7 8 9 10 11 12 13 14 15 16 17 18 19 20 21 22 23 24 25 26 27 28 29 30 31 32 33 34 35 36 37 38 39 40 41 42 43 44 45 46 47 48 49 50
000 ASUS42 KMHX 290325 RWRMHX WEATHER ROUNDUP FOR EASTERN NORTH CAROLINA NATIONAL WEATHER SERVICE NEWPORT/MOREHEAD CITY NC 1100 PM EDT SUN AUG 28 2016 NOTE: "FAIR" INDICATES FEW OR NO CLOUDS BELOW 12,000 FEET WITH NO SIGNIFICANT WEATHER AND/OR OBSTRUCTIONS TO VISIBILITY NCZ015>017-031-032-045>047-102-103-290400- NORTH COAST CITY SKY/WX TMP DP RH WIND PRES REMARKS EDENTON MOCLDY N/A N/A N/A NE3 30.12S ELIZABETH CITY CLOUDY 77 74 90 N7 30.11F KITTY HAWK MOCLDY 79 79 100 NE3 30.09S MANTEO CLOUDY 79 78 97 NE10 30.09F $$ NCZ045>047-081-094-103-104-290400- CENTRAL COAST CITY SKY/WX TMP DP RH WIND PRES REMARKS FRISCO CLOUDY 79 76 90 NE5 30.09S $$ NCZ095-097-098-100-101-290400- SOUTHERN COAST CITY SKY/WX TMP DP RH WIND PRES REMARKS BEAUFORT CLOUDY 78 76 93 NE3 30.08F CEDAR ISLAND NOT AVBL JACKSONVILLE CLEAR 77 74 90 NE8 30.09S PINEY ISLAND NOT AVBL WILMINGTON CLOUDY 76 74 93 N6 30.09S $$ NCZ011>013-027>030-043-044-078>080-089-090>093-098-290400- COASTAL PLAIN CITY SKY/WX TMP DP RH WIND PRES REMARKS AHOSKIE MOCLDY 71 69 93 CALM 30.14S CLINTON CLOUDY 75 75 99 CALM 30.12S ELIZABETHTOWN CLEAR 75 75 100 CALM 30.11S GOLDSBORO PTCLDY 76 76 100 E8 30.10F GREENVILLE PTCLDY 75 73 94 CALM 30.13S HAVELOCK CLEAR 78 76 93 N9 30.10F KENANSVILLE CLOUDY 75 73 94 E3 30.12S KINSTON CLOUDY 75 75 98 N5 30.12F NEW BERN CLEAR 77 75 93 NE6 30.11F RICHLANDS PTCLDY 74 74 100 N5 30.11S ROCKY MOUNT CLOUDY 76 72 87 CALM 30.14R WASHINGTON CLEAR 74 73 96 NE5 30.12S WHITEVILLE PTCLDY 75 73 92 CALM 30.10S $$ AMZ130-135-150-152-154-156-158-170-250-252-270-ANZ085-086-088-633-658-670-290400- MARINE OBSERVATIONS STATION/POSITION TIME TEMP WIND PRES WAVE SWELL AIR SEA DIR/SP/G HT/PER HT/PER (UTC) (F) (DEG/KT/KT) (MB) (FT/S) (FT/S) CHESAPEAKE LIGHT NOT AVBL 64 E VA BEACH 0250 80 81 60/ 12/ 14 1019.1 5/ 6 3/ 6 DUCK 0300 79 78 40/ 11/ 14 1018.6 2 E DUCK 0211 79 N/A 4/ 6 OREGON INLET 0300 79 81 20/ 5/ 8 1018.7 13E OREGON INLT 0300 81 N/A 4/ 6 3/ 6 HATTERAS CG 0300 80 83 80/ 4/ 6 1018.4 DIAMOND BUOY 0250 83 84 90/ 10/ 12 1018.6 4/15 3/15 CAPE LOOKOUT 0300 82 60/ 14/ 16 1018.3 BEAUFORT LAB 0300 78 82 30/ 4/ 5 1018.0 30 SE NEW RVR IN 0308 83 84 80/ 12/ 16 1018.0 30 SE NEW RVR IN 0225 84 N/A 3/ 7 27 SE WRIGHTSVLE 0308 83 83 60/ 10/ 14 1018.3 5 SE WRIGHTSVLE 0208 81 83 50/ 14/ 17 1019.5 225 S CAPE HAT 0250 83 84 40/ 12/ 14 1016.9 5/14 5/14 41 SE CHARLESTON 0250 83 85 50/ 12/ 16 1017.2 3/ 8 2/ 8 $$

USA.gov is the U.S. government's official web portal to all federal, state and local government web resources and services.